Regional Weather Roundup
Issued by NWS

Home | Current Version | Previous Version | Text Only | Print | Product List | Glossary On
Versions: 1 2 3 4 5 6 7 8 9 10 11 12 13 14 15 16 17 18 19 20 21 22 23 24 25 26 27
000
ASUS45 KBOU 270007
RWRCO

WEATHER ROUNDUP FOR COLORADO
NATIONAL WEATHER SERVICE DENVER/BOULDER CO
500 PM MST SUN FEB 26 2017

NOTE: "FAIR" INDICATES FEW OR NO CLOUDS BELOW 12000 FEET WITH NO
SIGNIFICANT WEATHER AND/OR OBSTRUCTIONS TO VISIBILITY.

COZ001>005-013-030-031-270100-
...NORTHWEST COLORADO...

CITY           SKY/WX    TMP DP  RH WIND       PRES   REMARKS
CRAIG          CLOUDY    29   5  36 VRB5      29.79F WCI  24
HAYDEN         FAIR      28   3  34 W10       29.78S WCI  19
MEEKER         FAIR      32   3  29 SW20      29.79F WCI  20
MOUNT WERNER   NOT AVBL
STEAMBOAT SPGS FAIR      26   0  32 CALM      29.78F
WALDEN         NOT AVBL
$$

COZ006>008-011-270100-
...WEST CENTRAL VALLEYS...

CITY           SKY/WX    TMP DP  RH WIND       PRES   REMARKS
GRAND JUNCTION FAIR      42   7  23 E5        29.82F
MONTROSE       FAIR      39  10  30 SW10      29.85F
EAGLE          PTCLDY    34   5  29 SW21G28   29.81F WCI  22
RIFLE          FAIR      38   6  26 W13       29.81F
DELTA          FAIR      42   5  21 CALM      29.84F
NUCLA          NOT AVBL
$$

COZ017>023-064>068-270100-
...SOUTHWEST COLORADO...

CITY           SKY/WX    TMP DP  RH WIND       PRES   REMARKS
DURANGO        FAIR      36   7  29 W14       29.86S
CORTEZ         FAIR      41   8  25 W12       29.87S
PAGOSA SPRINGS FAIR      33   4  29 SW13      29.85R WCI  24
TELLURIDE      CLOUDY    26   5  40 CALM      29.84F
WOLF CREEK PAS LGT SNOW   9   5  85 SW18G25   29.83S VSB 1   WCI -10
$$

COZ009-010-012-014-032>034-037-058>063-270100-
...CENTRAL COLORADO...

CITY           SKY/WX    TMP DP  RH WIND       PRES   REMARKS
ASPEN          FAIR      28  -2  27 SE9       29.78F WCI  19
BUENA VISTA    FAIR      28  -4  24 W15G25    29.77F WCI  17
COPPER MTN     FAIR      12  -4  48 MISG      29.70S
BERTHOUD PASS  FAIR       1  -8  66 NW25      29.65F WCI -22
COTTONWOOD PAS FAIR      23  -6  28 W13G28    29.75R WCI  11
GUNNISON       FAIR      23   9  55 CALM      29.84F
KREMMLING      FAIR      34   0  23 W20G26    29.78S WCI  22
LEADVILLE      FAIR      17  -9  31 VRB5      29.73F WCI  10
SALIDA         FAIR      32  -1  24 SW22G28   29.87S WCI  19
SUNLIGHT       NOT AVBL
WILKERSON PASS FAIR      18  -9  29 SW13G23   29.73S WCI   4
$$

COZ069>075-270100-
...SAN LUIS VALLEY/SANGRE DE CRISTO MOUNTAINS...

CITY           SKY/WX    TMP DP  RH WIND       PRES   REMARKS
ALAMOSA        CLOUDY    35   6  29 W18       29.80R WCI  24
LA VETA PASS   FAIR      21   3  45 SW21G37   29.75R WCI   6
SAGUACHE       FAIR      32   1  27 NW16G24   29.82R WCI  21
$$

COZ035-036-038>040-270100-
...NORTHERN COLORADO FRONT RANGE...

CITY           SKY/WX    TMP DP  RH WIND       PRES   REMARKS
DENVER INTL AP FAIR      40  -4  15 CALM      29.74S
DMNS CITY PARK   N/A     42  -6  13 NE6       29.73S
AURORA         PTCLDY    41  -7  13 CALM      29.74S
FRONT RANGE AP PTCLDY    41  -6  13 W7        29.75
ERIE MUNI ARPT FAIR      41  -4  14 N8        29.73S
BOULDER MUN AP FAIR      41   1  19 W6        29.72S
CENTENNIAL     MOCLDY    40  -8  13 CALM      29.73S
BROOMFIELD     PTCLDY    41  -2  16 CALM      29.73S
FORT COLLINS   FAIR      38  14  37 N10       29.75S
LONGMONT       NOT AVBL
$$

COZ041-046-047-076>085-087-088-270100-
...PIKES PEAK/PALMER DIVIDE AND SOUTHERN FOOTHILLS...

CITY           SKY/WX    TMP DP  RH WIND       PRES   REMARKS
COLO. SPRINGS  FAIR      42 -13   9 SW7       29.73S
A. F. ACADEMY  FAIR      39 -14  10 SW16      29.72R
SCHRIEVER AFB  FAIR      40 -11  11 SW14G23   29.74R
ELLICOTT       NOT AVBL
FALCON         FAIR      39 -13  10 SW8G16    29.74R
FORT CARSON    FAIR      43 -13   9 SW16      29.73R
LIMON          FAIR      39  -2  17 SE13      29.76S
MONUMENT HILL  FAIR      32   0  25 E5        29.74S WCI  27
TRINIDAD       FAIR      45  -2  14 NW14      29.77R
$$

COZ042>045-048>051-090-091-270100-
...NORTHEAST COLORADO...

CITY           SKY/WX    TMP DP  RH WIND       PRES   REMARKS
GREELEY ARPT   FAIR      42   1  18 SE6       29.76F
AKRON          FAIR      40   6  24 S7        29.77F
BURLINGTON     FAIR      44   6  21 S10       29.82S
WRAY           NOT AVBL
STERLING       FAIR      36  21  55 NE9       29.80R
HOLYOKE        FAIR      41  14  33 SE7       29.84F
FORT MORGAN    FAIR      38   7  26 NE6       29.78S
$$

COZ086-089-092>099-270100-
...SOUTHEAST COLORADO...

CITY           SKY/WX    TMP DP  RH WIND       PRES   REMARKS
PUEBLO         FAIR      49  -7   9 W16       29.74R
LA JUNTA       FAIR      50   4  15 E9        29.78S
LAMAR          FAIR      48   6  18 SE12      29.79R
SPRINGFIELD      N/A     45   5  19 E13       29.80R
$$




USA.gov is the U.S. government's official web portal to all federal, state and local government web resources and services.